| time (UTC) | temp F | wind direction | speed MPH | gust MPH | rain 1hr in | rain 24hr in | rain mn in | humidity % | barometer mb |
| 20260904073837 | 77 | 144 | 0.0 | 0.0 | 0.00 | 0.01 | 0.00 | 92 | 1015.7 |
| 20260904073339 | 77 | 144 | 0.0 | 0.0 | 0.00 | 0.01 | 0.00 | 92 | 1015.7 |
| 20260904072840 | 77 | 144 | 0.0 | 0.0 | 0.00 | 0.01 | 0.00 | 92 | 1015.6 |
| 20260904072341 | 77 | 144 | 0.0 | 0.0 | 0.00 | 0.01 | 0.00 | 92 | 1015.6 |
| 20260904071843 | 77 | 144 | 0.0 | 0.0 | 0.00 | 0.01 | 0.00 | 92 | 1015.7 |
| 20260904071341 | 77 | 144 | 0.0 | 0.0 | 0.00 | 0.01 | 0.00 | 92 | 1015.7 |
| 20260904070842 | 77 | 144 | 0.0 | 0.0 | 0.00 | 0.01 | 0.00 | 92 | 1015.7 |
| 20260904070324 | 77 | 144 | 0.0 | 0.0 | 0.00 | 0.01 | 0.00 | 92 | 1015.6 |
| 20260904065825 | 77 | 144 | 0.0 | 0.0 | 0.00 | 0.01 | 0.00 | 92 | 1015.6 |
| 20260904065327 | 77 | 144 | 0.0 | 0.0 | 0.00 | 0.01 | 0.00 | 91 | 1015.7 |
| 20260904064830 | 77 | 144 | 0.0 | 0.0 | 0.00 | 0.01 | 0.00 | 91 | 1015.6 |
| 20260904064332 | 78 | 144 | 0.0 | 0.0 | 0.00 | 0.01 | 0.00 | 92 | 1015.6 |
| 20260904063834 | 78 | 144 | 0.0 | 0.0 | 0.00 | 0.01 | 0.00 | 91 | 1015.7 |
| 20260904063336 | 78 | 144 | 0.0 | 0.0 | 0.00 | 0.01 | 0.00 | 91 | 1015.8 |
| 20260904062837 | 78 | 144 | 0.0 | 0.0 | 0.00 | 0.01 | 0.00 | 91 | 1015.9 |
| 20260904062338 | 78 | 144 | 0.0 | 0.0 | 0.00 | 0.01 | 0.00 | 91 | 1016.0 |
| 20260904061841 | 78 | 144 | 0.0 | 0.0 | 0.00 | 0.01 | 0.00 | 91 | 1016.0 |
| 20260904061342 | 78 | 144 | 0.0 | 0.0 | 0.00 | 0.01 | 0.00 | 91 | 1016.1 |
| 20260904060843 | 78 | 144 | 0.0 | 0.0 | 0.00 | 0.01 | 0.00 | 91 | 1016.1 |
| 20260904060341 | 78 | 144 | 0.0 | 0.0 | 0.00 | 0.01 | 0.00 | 91 | 1016.2 |
| 20260904055841 | 78 | 144 | 0.0 | 0.0 | 0.00 | 0.01 | 0.00 | 91 | 1016.2 |
| 20260904055323 | 78 | 144 | 0.0 | 0.0 | 0.00 | 0.01 | 0.00 | 91 | 1016.3 |
| 20260904054825 | 78 | 144 | 0.0 | 0.0 | 0.00 | 0.01 | 0.00 | 91 | 1016.3 |
| 20260904054327 | 78 | 144 | 0.0 | 0.0 | 0.00 | 0.01 | 0.00 | 91 | 1016.4 |
| 20260904053857 | 78 | 144 | 0.0 | 0.0 | 0.00 | 0.01 | 0.00 | 91 | 1016.4 |
| 20260904053406 | 78 | 144 | 0.0 | 0.0 | 0.00 | 0.01 | 0.00 | 91 | 1016.4 |
| 20260904052847 | 78 | 144 | 0.0 | 0.0 | 0.00 | 0.01 | 0.00 | 91 | 1016.4 |
| 20260904052349 | 78 | 144 | 0.0 | 0.0 | 0.00 | 0.01 | 0.00 | 91 | 1016.3 |
| 20260904051850 | 78 | 144 | 0.0 | 0.0 | 0.00 | 0.01 | 0.00 | 91 | 1016.4 |
| 20260904051353 | 79 | 144 | 0.0 | 0.0 | 0.00 | 0.01 | 0.00 | 91 | 1016.4 |
| 20260904050834 | 79 | 144 | 0.0 | 0.0 | 0.00 | 0.01 | 0.00 | 91 | 1016.5 |
| 20260904050334 | 79 | 144 | 0.0 | 0.0 | 0.00 | 0.01 | 0.00 | 90 | 1016.6 |
| 20260904045835 | 79 | 144 | 0.0 | 0.0 | 0.00 | 0.01 | 0.00 | 90 | 1016.7 |
| 20260904045339 | 79 | 144 | 0.0 | 0.0 | 0.00 | 0.01 | 0.00 | 90 | 1016.7 |
| 20260904044822 | 79 | 144 | 0.0 | 0.0 | 0.00 | 0.01 | 0.00 | 89 | 1016.7 |
| 20260904044354 | 79 | 144 | 0.0 | 0.0 | 0.00 | 0.01 | 0.00 | 89 | 1016.8 |
| 20260904043905 | 79 | 144 | 0.0 | 0.0 | 0.00 | 0.01 | 0.00 | 89 | 1016.8 |
| 20260904043347 | 79 | 144 | 0.0 | 0.0 | 0.00 | 0.01 | 0.00 | 89 | 1016.8 |
| 20260904042849 | 79 | 144 | 0.0 | 0.0 | 0.00 | 0.01 | 0.00 | 89 | 1016.8 |
| 20260904042359 | 79 | 144 | 0.0 | 0.0 | 0.00 | 0.01 | 0.00 | 88 | 1016.7 |
| 20260904041841 | 79 | 144 | 0.0 | 0.0 | 0.00 | 0.01 | 0.00 | 88 | 1016.7 |
| 20260904041324 | 80 | 144 | 0.0 | 0.0 | 0.00 | 0.01 | 0.00 | 88 | 1016.7 |
| 20260904040825 | 80 | 144 | 0.0 | 0.0 | 0.00 | 0.01 | 0.00 | 88 | 1016.6 |
| 20260904040352 | 80 | 144 | 0.0 | 0.0 | 0.00 | 0.01 | 0.00 | 88 | 1016.7 |
| 20260904035825 | 80 | 144 | 0.0 | 0.0 | 0.00 | 0.01 | 0.01 | 88 | 1016.7 |
| 20260904035329 | 80 | 144 | 0.0 | 0.0 | 0.00 | 0.01 | 0.01 | 88 | 1016.7 |
| 20260904034833 | 80 | 144 | 0.0 | 0.0 | 0.00 | 0.01 | 0.01 | 88 | 1016.7 |
| 20260904034337 | 80 | 144 | 0.0 | 0.0 | 0.00 | 0.01 | 0.01 | 88 | 1016.7 |
| 20260904033841 | 80 | 144 | 0.0 | 0.0 | 0.00 | 0.01 | 0.01 | 88 | 1016.6 |
| 20260904033343 | 80 | 144 | 0.0 | 1.0 | 0.00 | 0.01 | 0.01 | 87 | 1016.6 |
| 20260904032825 | 80 | 144 | 0.0 | 2.0 | 0.00 | 0.01 | 0.01 | 87 | 1016.5 |
| 20260904032327 | 80 | 144 | 0.0 | 2.0 | 0.00 | 0.01 | 0.01 | 87 | 1016.5 |
| 20260904031830 | 80 | 149 | 0.0 | 1.0 | 0.00 | 0.01 | 0.01 | 87 | 1016.5 |
| 20260904031402 | 81 | 149 | 0.0 | 2.0 | 0.00 | 0.01 | 0.01 | 87 | 1016.5 |
| 20260904030823 | 81 | 141 | 0.0 | 3.0 | 0.00 | 0.01 | 0.01 | 87 | 1016.6 |
| 20260904030355 | 81 | 137 | 0.0 | 4.0 | 0.00 | 0.01 | 0.01 | 87 | 1016.6 |
| 20260904025900 | 81 | 127 | 1.0 | 4.0 | 0.00 | 0.01 | 0.01 | 87 | 1016.6 |
| 20260904025342 | 81 | 128 | 1.0 | 6.0 | 0.00 | 0.01 | 0.01 | 88 | 1016.6 |
| 20260904024844 | 81 | 121 | 1.0 | 6.0 | 0.00 | 0.01 | 0.01 | 88 | 1016.5 |
| 20260904024348 | 81 | 129 | 2.0 | 6.0 | 0.00 | 0.01 | 0.01 | 88 | 1016.5 |
| 20260904023830 | 81 | 130 | 1.0 | 4.0 | 0.00 | 0.01 | 0.01 | 89 | 1016.4 |
| 20260904023336 | 81 | 153 | 1.0 | 5.0 | 0.00 | 0.01 | 0.01 | 89 | 1016.4 |
| 20260904022838 | 81 | 128 | 2.0 | 5.0 | 0.00 | 0.01 | 0.01 | 89 | 1016.3 |
| 20260904022342 | 81 | 138 | 1.0 | 5.0 | 0.00 | 0.01 | 0.01 | 89 | 1016.2 |
| 20260904021826 | 81 | 76 | 2.0 | 7.0 | 0.00 | 0.01 | 0.01 | 88 | 1016.3 |
| 20260904021331 | 81 | 97 | 2.0 | 7.0 | 0.00 | 0.01 | 0.01 | 88 | 1016.4 |
| 20260904020842 | 81 | 134 | 2.0 | 7.0 | 0.00 | 0.01 | 0.01 | 88 | 1016.4 |
| 20260904020327 | 81 | 75 | 1.0 | 4.0 | 0.00 | 0.01 | 0.01 | 89 | 1016.4 |
| 20260904015853 | 82 | 125 | 2.0 | 4.0 | 0.00 | 0.01 | 0.01 | 89 | 1016.4 |
| 20260904015336 | 82 | 117 | 2.0 | 4.0 | 0.00 | 0.01 | 0.01 | 88 | 1016.4 |
| 20260904014840 | 82 | 68 | 1.0 | 4.0 | 0.00 | 0.01 | 0.01 | 88 | 1016.4 |
| 20260904014345 | 82 | 96 | 1.0 | 7.0 | 0.00 | 0.01 | 0.01 | 88 | 1016.3 |
| 20260904013849 | 82 | 136 | 1.0 | 7.0 | 0.00 | 0.01 | 0.01 | 88 | 1016.3 |
| 20260904013334 | 82 | 108 | 2.0 | 5.0 | 0.00 | 0.01 | 0.01 | 88 | 1016.3 |
| 20260904012835 | 82 | 117 | 2.0 | 5.0 | 0.00 | 0.01 | 0.01 | 88 | 1016.2 |
| 20260904012339 | 82 | 112 | 1.0 | 5.0 | 0.00 | 0.01 | 0.01 | 88 | 1016.1 |
| 20260904011824 | 82 | 111 | 1.0 | 7.0 | 0.00 | 0.01 | 0.01 | 88 | 1016.1 |
| 20260904011334 | 82 | 113 | 2.0 | 7.0 | 0.00 | 0.01 | 0.01 | 88 | 1016.1 |
| 20260904010838 | 82 | 76 | 2.0 | 8.0 | 0.00 | 0.01 | 0.01 | 87 | 1016.0 |
| 20260904010339 | 82 | 99 | 2.0 | 8.0 | 0.00 | 0.01 | 0.01 | 87 | 1016.1 |
| 20260904005845 | 82 | 128 | 1.0 | 6.0 | 0.00 | 0.01 | 0.01 | 87 | 1016.2 |
| 20260904005341 | 82 | 126 | 2.0 | 5.0 | 0.00 | 0.01 | 0.01 | 87 | 1016.1 |
| 20260904004844 | 82 | 124 | 1.0 | 4.0 | 0.00 | 0.01 | 0.01 | 87 | 1016.2 |
| 20260904004323 | 82 | 128 | 1.0 | 4.0 | 0.00 | 0.01 | 0.01 | 87 | 1016.1 |
| 20260904003823 | 82 | 128 | 1.0 | 3.0 | 0.00 | 0.01 | 0.01 | 87 | 1016.1 |
| 20260904003328 | 82 | 125 | 1.0 | 3.0 | 0.00 | 0.01 | 0.01 | 87 | 1016.1 |
| 20260904002859 | 82 | 133 | 1.0 | 4.0 | 0.00 | 0.01 | 0.01 | 87 | 1016.0 |
| 20260904002339 | 82 | 133 | 0.0 | 4.0 | 0.00 | 0.01 | 0.01 | 87 | 1016.0 |
| 20260904001824 | 82 | 97 | 2.0 | 4.0 | 0.00 | 0.01 | 0.01 | 87 | 1016.1 |
| 20260904001328 | 82 | 142 | 1.0 | 5.0 | 0.00 | 0.01 | 0.01 | 87 | 1016.0 |
| 20260904000829 | 82 | 132 | 1.0 | 5.0 | 0.00 | 0.01 | 0.01 | 87 | 1015.9 |
| 20260904000333 | 82 | 134 | 1.0 | 5.0 | 0.00 | 0.01 | 0.01 | 87 | 1015.9 |
| 20260903235833 | 82 | 121 | 1.0 | 5.0 | 0.00 | 0.01 | 0.01 | 87 | 1015.8 |
| 20260903235336 | 82 | 132 | 1.0 | 4.0 | 0.00 | 0.01 | 0.01 | 86 | 1015.6 |
| 20260903234834 | 82 | 136 | 2.0 | 4.0 | 0.00 | 0.01 | 0.01 | 86 | 1015.5 |
| 20260903234338 | 83 | 101 | 2.0 | 4.0 | 0.00 | 0.01 | 0.01 | 86 | 1015.5 |
| 20260903233841 | 83 | 151 | 2.0 | 4.0 | 0.00 | 0.01 | 0.01 | 86 | 1015.6 |
| 20260903233326 | 83 | 111 | 1.0 | 3.0 | 0.00 | 0.01 | 0.01 | 86 | 1015.9 |
| 20260903232828 | 83 | 95 | 1.0 | 4.0 | 0.00 | 0.01 | 0.01 | 86 | 1015.9 |
| 20260903232337 | 83 | 128 | 2.0 | 4.0 | 0.00 | 0.01 | 0.01 | 86 | 1016.0 |
| 20260903231841 | 83 | 121 | 2.0 | 6.0 | 0.00 | 0.01 | 0.01 | 86 | 1015.9 |
| 20260903231345 | 83 | 119 | 2.0 | 6.0 | 0.00 | 0.01 | 0.01 | 86 | 1015.8 |
| 20260903230848 | 83 | 126 | 1.0 | 3.0 | 0.00 | 0.01 | 0.01 | 86 | 1015.8 |
| 20260903230332 | 83 | 105 | 1.0 | 5.0 | 0.00 | 0.01 | 0.01 | 85 | 1015.5 |
| 20260903225834 | 83 | 71 | 1.0 | 7.0 | 0.00 | 0.01 | 0.01 | 85 | 1015.6 |
| 20260903225337 | 83 | 138 | 1.0 | 8.0 | 0.00 | 0.01 | 0.01 | 85 | 1015.6 |
| 20260903224905 | 83 | 128 | 3.0 | 8.0 | 0.00 | 0.01 | 0.01 | 85 | 1015.6 |
| 20260903224325 | 83 | 134 | 2.0 | 4.0 | 0.00 | 0.01 | 0.01 | 85 | 1015.6 |
| 20260903223829 | 84 | 71 | 1.0 | 9.0 | 0.00 | 0.01 | 0.01 | 85 | 1015.6 |
| 20260903223335 | 84 | 115 | 3.0 | 9.0 | 0.00 | 0.01 | 0.01 | 84 | 1015.5 |
| 20260903222835 | 84 | 92 | 1.0 | 3.0 | 0.00 | 0.01 | 0.01 | 84 | 1015.4 |
| 20260903222339 | 84 | 113 | 1.0 | 3.0 | 0.00 | 0.01 | 0.01 | 84 | 1015.5 |
| 20260903221842 | 84 | 99 | 1.0 | 7.0 | 0.00 | 0.01 | 0.01 | 84 | 1015.4 |
| 20260903221326 | 84 | 113 | 2.0 | 5.0 | 0.00 | 0.01 | 0.01 | 84 | 1015.4 |
| 20260903220830 | 84 | 126 | 1.0 | 4.0 | 0.00 | 0.01 | 0.01 | 84 | 1015.3 |
| 20260903220332 | 84 | 84 | 2.0 | 4.0 | 0.00 | 0.01 | 0.01 | 83 | 1015.1 |
| 20260903215830 | 84 | 115 | 2.0 | 4.0 | 0.00 | 0.01 | 0.01 | 83 | 1015.0 |
| 20260903215330 | 85 | 109 | 2.0 | 3.0 | 0.00 | 0.01 | 0.01 | 83 | 1014.9 |
| 20260903214830 | 85 | 81 | 1.0 | 4.0 | 0.00 | 0.01 | 0.01 | 84 | 1015.0 |
| 20260903214330 | 85 | 69 | 2.0 | 4.0 | 0.00 | 0.01 | 0.01 | 84 | 1015.0 |
| 20260903213826 | 84 | 113 | 1.0 | 4.0 | 0.00 | 0.01 | 0.01 | 83 | 1015.1 |
| 20260903213328 | 85 | 80 | 2.0 | 4.0 | 0.00 | 0.01 | 0.01 | 83 | 1015.0 |
| 20260903212859 | 85 | 98 | 1.0 | 6.0 | 0.00 | 0.01 | 0.01 | 84 | 1015.0 |
| 20260903212341 | 84 | 74 | 2.0 | 6.0 | 0.00 | 0.01 | 0.01 | 83 | 1015.0 |
| 20260903211823 | 85 | 117 | 1.0 | 4.0 | 0.00 | 0.01 | 0.01 | 84 | 1015.0 |
| 20260903211326 | 85 | 111 | 2.0 | 4.0 | 0.00 | 0.01 | 0.01 | 84 | 1014.9 |
| 20260903210826 | 85 | 78 | 1.0 | 5.0 | 0.00 | 0.01 | 0.01 | 84 | 1014.8 |
| 20260903210329 | 85 | 134 | 1.0 | 5.0 | 0.00 | 0.01 | 0.01 | 83 | 1014.7 |
| 20260903205900 | 85 | 106 | 1.0 | 4.0 | 0.00 | 0.01 | 0.01 | 84 | 1014.7 |
| 20260903205410 | 85 | 64 | 1.0 | 8.0 | 0.00 | 0.01 | 0.01 | 84 | 1014.7 |
| 20260903204851 | 85 | 68 | 3.0 | 8.0 | 0.00 | 0.01 | 0.01 | 83 | 1014.6 |
| 20260903204330 | 85 | 65 | 1.0 | 4.0 | 0.00 | 0.01 | 0.01 | 84 | 1014.7 |
| 20260903203902 | 85 | 77 | 2.0 | 4.0 | 0.00 | 0.01 | 0.01 | 83 | 1014.6 |
| 20260903203324 | 85 | 70 | 2.0 | 4.0 | 0.00 | 0.01 | 0.01 | 83 | 1014.6 |
| 20260903202824 | 85 | 63 | 2.0 | 5.0 | 0.00 | 0.01 | 0.01 | 83 | 1014.7 |
| 20260903202325 | 85 | 74 | 1.0 | 5.0 | 0.00 | 0.01 | 0.01 | 83 | 1014.8 |
| 20260903201826 | 85 | 86 | 2.0 | 6.0 | 0.00 | 0.01 | 0.01 | 82 | 1015.0 |
| 20260903201327 | 85 | 153 | 1.0 | 6.0 | 0.00 | 0.01 | 0.01 | 82 | 1015.1 |
| 20260903200833 | 85 | 130 | 2.0 | 6.0 | 0.00 | 0.01 | 0.01 | 82 | 1015.2 |
| 20260903200337 | 86 | 129 | 2.0 | 4.0 | 0.00 | 0.01 | 0.01 | 81 | 1015.4 |
| 20260903195838 | 86 | 137 | 1.0 | 3.0 | 0.00 | 0.01 | 0.01 | 82 | 1015.4 |
| 20260903195322 | 86 | 67 | 0.0 | 4.0 | 0.00 | 0.01 | 0.01 | 82 | 1015.4 |
| 20260903194834 | 86 | 80 | 1.0 | 5.0 | 0.00 | 0.01 | 0.01 | 82 | 1015.4 |
| 20260903194402 | 86 | 65 | 1.0 | 5.0 | 0.00 | 0.01 | 0.01 | 81 | 1015.5 |
| 20260903193845 | 86 | 64 | 1.0 | 4.0 | 0.00 | 0.01 | 0.01 | 82 | 1015.5 |
| 20260903193349 | 86 | 74 | 2.0 | 4.0 | 0.00 | 0.01 | 0.01 | 81 | 1015.7 |
| 20260903192831 | 86 | 70 | 0.0 | 3.0 | 0.00 | 0.01 | 0.01 | 82 | 1015.8 |
| 20260903192334 | 86 | 79 | 1.0 | 3.0 | 0.00 | 0.01 | 0.01 | 81 | 1015.8 |
| 20260903191837 | 86 | 79 | 0.0 | 3.0 | 0.00 | 0.01 | 0.01 | 82 | 1015.9 |
| 20260903191340 | 86 | 89 | 0.0 | 3.0 | 0.00 | 0.01 | 0.01 | 80 | 1015.9 |
| 20260903190824 | 86 | 92 | 1.0 | 3.0 | 0.00 | 0.01 | 0.01 | 80 | 1016.0 |
| 20260903190357 | 86 | 141 | 1.0 | 5.0 | 0.00 | 0.01 | 0.01 | 81 | 1015.9 |
| 20260903185844 | 86 | 134 | 2.0 | 5.0 | 0.00 | 0.57 | 0.01 | 80 | 1015.9 |
| 20260903185325 | 86 | 137 | 1.0 | 4.0 | 0.00 | 0.57 | 0.01 | 82 | 1016.0 |
| 20260903184853 | 85 | 105 | 2.0 | 4.0 | 0.00 | 0.57 | 0.01 | 81 | 1016.1 |
| 20260903184335 | 85 | 98 | 1.0 | 5.0 | 0.00 | 0.57 | 0.01 | 81 | 1016.0 |
| 20260903183838 | 85 | 105 | 3.0 | 6.0 | 0.00 | 0.57 | 0.01 | 81 | 1016.1 |
| 20260903183342 | 85 | 115 | 1.0 | 6.0 | 0.00 | 0.57 | 0.01 | 82 | 1016.1 |
| 20260903182840 | 86 | 116 | 1.0 | 3.0 | 0.00 | 0.57 | 0.01 | 81 | 1016.1 |
| 20260903182409 | 85 | 82 | 1.0 | 4.0 | 0.00 | 0.57 | 0.01 | 82 | 1016.2 |
| 20260903181847 | 85 | 68 | 2.0 | 5.0 | 0.00 | 0.57 | 0.01 | 81 | 1016.2 |
| 20260903181350 | 85 | 82 | 1.0 | 4.0 | 0.00 | 0.57 | 0.01 | 82 | 1016.2 |
| 20260903180853 | 85 | 76 | 2.0 | 5.0 | 0.00 | 0.57 | 0.01 | 81 | 1016.3 |
| 20260903180335 | 85 | 81 | 2.0 | 5.0 | 0.00 | 0.57 | 0.01 | 82 | 1016.3 |
| 20260903175836 | 85 | 137 | 1.0 | 5.0 | 0.00 | 0.57 | 0.01 | 81 | 1016.4 |
| 20260903175340 | 85 | 131 | 3.0 | 7.0 | 0.00 | 0.57 | 0.01 | 81 | 1016.5 |
| 20260903174823 | 85 | 122 | 2.0 | 4.0 | 0.00 | 0.57 | 0.01 | 80 | 1016.5 |
| 20260903174409 | 85 | 105 | 2.0 | 4.0 | 0.00 | 0.57 | 0.01 | 81 | 1016.5 |
| 20260903173851 | 85 | 96 | 2.0 | 4.0 | 0.00 | 0.57 | 0.01 | 81 | 1016.4 |
| 20260903173333 | 85 | 94 | 1.0 | 3.0 | 0.00 | 0.57 | 0.01 | 83 | 1016.5 |
| 20260903172833 | 85 | 71 | 1.0 | 3.0 | 0.00 | 0.57 | 0.01 | 83 | 1016.5 |
| 20260903172400 | 84 | 63 | 1.0 | 3.0 | 0.00 | 0.57 | 0.01 | 84 | 1016.7 |
| 20260903171847 | 84 | 105 | 1.0 | 5.0 | 0.00 | 0.57 | 0.01 | 84 | 1016.8 |
| 20260903171349 | 84 | 130 | 3.0 | 5.0 | 0.00 | 0.57 | 0.01 | 85 | 1016.9 |
| 20260903170854 | 84 | 104 | 1.0 | 3.0 | 0.00 | 0.57 | 0.01 | 85 | 1017.1 |
| 20260903170338 | 84 | 74 | 1.0 | 4.0 | 0.00 | 0.57 | 0.01 | 86 | 1017.1 |
| 20260903165823 | 84 | 121 | 2.0 | 4.0 | 0.00 | 0.57 | 0.01 | 86 | 1017.2 |
| 20260903165351 | 83 | 82 | 1.0 | 6.0 | 0.00 | 0.57 | 0.01 | 86 | 1017.2 |
| 20260903164835 | 84 | 79 | 3.0 | 7.0 | 0.00 | 0.57 | 0.01 | 85 | 1017.3 |
| 20260903164339 | 84 | 70 | 3.0 | 6.0 | 0.00 | 0.57 | 0.01 | 85 | 1017.4 |
| 20260903163843 | 84 | 139 | 3.0 | 7.0 | 0.00 | 0.57 | 0.01 | 85 | 1017.5 |
| 20260903163347 | 84 | 98 | 1.0 | 6.0 | 0.00 | 0.57 | 0.01 | 87 | 1017.5 |
| 20260903162848 | 84 | 81 | 2.0 | 6.0 | 0.00 | 0.57 | 0.01 | 87 | 1017.5 |
| 20260903162348 | 83 | 80 | 3.0 | 7.0 | 0.00 | 0.57 | 0.01 | 87 | 1017.4 |
| 20260903161847 | 83 | 135 | 3.0 | 7.0 | 0.00 | 0.57 | 0.01 | 88 | 1017.4 |
| 20260903161346 | 82 | 126 | 1.0 | 7.0 | 0.00 | 0.57 | 0.01 | 88 | 1017.3 |
| 20260903160847 | 82 | 112 | 3.0 | 8.0 | 0.00 | 0.57 | 0.01 | 89 | 1017.3 |
| 20260903160349 | 82 | 119 | 1.0 | 5.0 | 0.00 | 0.57 | 0.01 | 91 | 1017.2 |
| 20260903155846 | 81 | 77 | 2.0 | 4.0 | 0.00 | 0.57 | 0.01 | 91 | 1017.2 |
| 20260903155343 | 81 | 80 | 1.0 | 4.0 | 0.00 | 0.57 | 0.01 | 91 | 1017.3 |
| 20260903154843 | 81 | 78 | 2.0 | 4.0 | 0.01 | 0.57 | 0.01 | 92 | 1017.4 |
| 20260903154343 | 81 | 69 | 1.0 | 4.0 | 0.01 | 0.57 | 0.01 | 93 | 1017.4 |
| 20260903153843 | 81 | 76 | 2.0 | 4.0 | 0.01 | 0.57 | 0.01 | 93 | 1017.4 |
| 20260903153345 | 80 | 80 | 1.0 | 4.0 | 0.01 | 0.57 | 0.01 | 93 | 1017.4 |
| 20260903152823 | 80 | 76 | 2.0 | 6.0 | 0.01 | 0.57 | 0.01 | 94 | 1017.4 |
| 20260903152322 | 80 | 86 | 2.0 | 6.0 | 0.01 | 0.57 | 0.01 | 95 | 1017.4 |
| 20260903151850 | 79 | 88 | 1.0 | 4.0 | 0.01 | 0.57 | 0.01 | 95 | 1017.4 |
| 20260903151350 | 79 | 100 | 1.0 | 4.0 | 0.01 | 0.57 | 0.01 | 95 | 1017.5 |
| 20260903150850 | 79 | 99 | 1.0 | 4.0 | 0.01 | 0.57 | 0.01 | 95 | 1017.5 |
| 20260903150329 | 79 | 96 | 1.0 | 4.0 | 0.01 | 0.57 | 0.01 | 96 | 1017.5 |
| 20260903145825 | 79 | 103 | 1.0 | 4.0 | 0.01 | 0.57 | 0.01 | 96 | 1017.5 |
| 20260903145357 | 79 | 67 | 1.0 | 4.0 | 0.00 | 0.56 | 0.00 | 96 | 1017.4 |
| 20260903144837 | 79 | 118 | 1.0 | 4.0 | 0.00 | 0.56 | 0.00 | 96 | 1017.5 |
| 20260903144339 | 79 | 109 | 1.0 | 3.0 | 0.00 | 0.56 | 0.00 | 96 | 1017.5 |
| 20260903143841 | 79 | 87 | 1.0 | 3.0 | 0.00 | 0.56 | 0.00 | 96 | 1017.4 |
| 20260903143324 | 78 | 84 | 1.0 | 6.0 | 0.00 | 0.56 | 0.00 | 96 | 1017.4 |
| 20260903142825 | 79 | 80 | 1.0 | 6.0 | 0.00 | 0.56 | 0.00 | 96 | 1017.5 |
| 20260903142327 | 79 | 55 | 1.0 | 4.0 | 0.00 | 0.56 | 0.00 | 96 | 1017.5 |
| 20260903141829 | 79 | 110 | 0.0 | 2.0 | 0.00 | 0.56 | 0.00 | 97 | 1017.4 |
| 20260903141331 | 79 | 78 | 1.0 | 2.0 | 0.00 | 0.56 | 0.00 | 97 | 1017.3 |
| 20260903140902 | 79 | 76 | 0.0 | 1.0 | 0.00 | 0.56 | 0.00 | 97 | 1017.3 |
| 20260903140343 | 79 | 76 | 0.0 | 1.0 | 0.00 | 0.56 | 0.00 | 97 | 1017.3 |
| 20260903135823 | 79 | 76 | 0.0 | 1.0 | 0.00 | 0.56 | 0.00 | 97 | 1017.2 |
| 20260903135330 | 79 | 76 | 0.0 | 0.0 | 0.00 | 0.56 | 0.00 | 97 | 1017.1 |
| 20260903134831 | 79 | 76 | 0.0 | 1.0 | 0.00 | 0.56 | 0.00 | 97 | 1017.2 |
| 20260903134335 | 79 | 76 | 0.0 | 1.0 | 0.00 | 0.56 | 0.00 | 97 | 1017.2 |
| 20260903133838 | 79 | 76 | 0.0 | 2.0 | 0.00 | 0.56 | 0.00 | 97 | 1017.2 |
| 20260903133340 | 79 | 76 | 0.0 | 2.0 | 0.00 | 0.56 | 0.00 | 97 | 1017.1 |
| 20260903132841 | 79 | 76 | 0.0 | 0.0 | 0.00 | 0.56 | 0.00 | 97 | 1016.9 |
| 20260903132324 | 78 | 76 | 0.0 | 1.0 | 0.00 | 0.56 | 0.00 | 97 | 1016.9 |
| 20260903131823 | 78 | 76 | 0.0 | 0.0 | 0.00 | 0.56 | 0.00 | 97 | 1016.8 |
| 20260903131323 | 78 | 76 | 0.0 | 0.0 | 0.00 | 0.56 | 0.00 | 96 | 1016.7 |
| 20260903130823 | 77 | 76 | 0.0 | 0.0 | 0.00 | 0.56 | 0.00 | 96 | 1016.9 |
| 20260903130351 | 77 | 76 | 0.0 | 0.0 | 0.00 | 0.56 | 0.00 | 96 | 1017.0 |
| 20260903125851 | 77 | 76 | 0.0 | 0.0 | 0.00 | 0.56 | 0.00 | 96 | 1016.9 |
| 20260903125343 | 77 | 76 | 0.0 | 2.0 | 0.00 | 0.56 | 0.00 | 96 | 1016.8 |
| 20260903124844 | 77 | 76 | 0.0 | 2.0 | 0.00 | 0.56 | 0.00 | 96 | 1016.7 |
| 20260903124323 | 77 | 100 | 0.0 | 0.0 | 0.00 | 0.56 | 0.00 | 96 | 1016.8 |
| 20260903123825 | 77 | 100 | 0.0 | 0.0 | 0.00 | 0.56 | 0.00 | 96 | 1016.7 |
| 20260903123326 | 77 | 100 | 0.0 | 0.0 | 0.00 | 0.56 | 0.00 | 95 | 1016.9 |
| 20260903122826 | 76 | 100 | 0.0 | 0.0 | 0.00 | 0.56 | 0.00 | 95 | 1016.9 |
| 20260903122354 | 76 | 111 | 0.0 | 0.0 | 0.00 | 0.56 | 0.00 | 95 | 1016.9 |
| 20260903121833 | 76 | 111 | 0.0 | 0.0 | 0.00 | 0.56 | 0.00 | 95 | 1016.9 |
| 20260903121337 | 76 | 111 | 0.0 | 0.0 | 0.00 | 0.56 | 0.00 | 95 | 1016.9 |
| 20260903120841 | 76 | 111 | 0.0 | 0.0 | 0.00 | 0.56 | 0.00 | 95 | 1016.8 |
| 20260903120344 | 76 | 111 | 0.0 | 0.0 | 0.00 | 0.56 | 0.00 | 95 | 1016.7 |
| 20260903115844 | 76 | 111 | 0.0 | 0.0 | 0.00 | 0.56 | 0.00 | 95 | 1016.6 |
| 20260903115343 | 76 | 111 | 0.0 | 0.0 | 0.00 | 0.56 | 0.00 | 95 | 1016.6 |
| 20260903114848 | 76 | 111 | 0.0 | 0.0 | 0.00 | 0.56 | 0.00 | 95 | 1016.5 |
| 20260903114330 | 76 | 111 | 0.0 | 0.0 | 0.00 | 0.56 | 0.00 | 95 | 1016.5 |
| 20260903113832 | 76 | 111 | 0.0 | 0.0 | 0.00 | 0.56 | 0.00 | 95 | 1016.6 |
| 20260903113343 | 76 | 111 | 0.0 | 0.0 | 0.00 | 0.56 | 0.00 | 95 | 1016.5 |
| 20260903112826 | 76 | 111 | 0.0 | 1.0 | 0.00 | 0.56 | 0.00 | 95 | 1016.3 |
| 20260903112358 | 76 | 111 | 0.0 | 1.0 | 0.00 | 0.56 | 0.00 | 95 | 1016.3 |
| 20260903111840 | 76 | 111 | 0.0 | 0.0 | 0.00 | 0.56 | 0.00 | 94 | 1016.4 |
| 20260903111324 | 76 | 111 | 0.0 | 0.0 | 0.00 | 0.56 | 0.00 | 94 | 1016.3 |
| 20260903110835 | 76 | 111 | 0.0 | 0.0 | 0.00 | 0.56 | 0.00 | 94 | 1016.1 |
| 20260903110341 | 76 | 111 | 0.0 | 0.0 | 0.00 | 0.56 | 0.00 | 94 | 1016.0 |
| 20260903105823 | 76 | 111 | 0.0 | 0.0 | 0.00 | 0.56 | 0.00 | 94 | 1016.0 |
| 20260903105349 | 76 | 111 | 0.0 | 0.0 | 0.00 | 0.56 | 0.00 | 94 | 1016.0 |
| 20260903104832 | 76 | 111 | 0.0 | 0.0 | 0.00 | 0.56 | 0.00 | 94 | 1016.0 |
| 20260903104336 | 76 | 111 | 0.0 | 0.0 | 0.00 | 0.56 | 0.00 | 94 | 1015.9 |
| 20260903103839 | 76 | 111 | 0.0 | 0.0 | 0.00 | 0.56 | 0.00 | 94 | 1015.6 |
| 20260903103347 | 76 | 111 | 0.0 | 0.0 | 0.00 | 0.56 | 0.00 | 94 | 1015.5 |
| 20260903102846 | 76 | 111 | 0.0 | 0.0 | 0.00 | 0.56 | 0.00 | 94 | 1015.5 |
| 20260903102347 | 76 | 111 | 0.0 | 0.0 | 0.00 | 0.56 | 0.00 | 94 | 1015.5 |
| 20260903101849 | 76 | 111 | 0.0 | 0.0 | 0.00 | 0.56 | 0.00 | 94 | 1015.5 |
| 20260903101350 | 76 | 111 | 0.0 | 0.0 | 0.00 | 0.56 | 0.00 | 94 | 1015.5 |
| 20260903100853 | 76 | 111 | 0.0 | 0.0 | 0.00 | 0.56 | 0.00 | 94 | 1015.5 |
| 20260903100334 | 76 | 111 | 0.0 | 0.0 | 0.00 | 0.56 | 0.00 | 94 | 1015.5 |
| 20260903095835 | 76 | 111 | 0.0 | 0.0 | 0.00 | 0.56 | 0.00 | 94 | 1015.5 |
| 20260903095337 | 76 | 111 | 0.0 | 0.0 | 0.00 | 0.56 | 0.00 | 94 | 1015.5 |
| 20260903094822 | 76 | 111 | 0.0 | 0.0 | 0.00 | 0.56 | 0.00 | 94 | 1015.4 |
| 20260903094326 | 76 | 111 | 0.0 | 0.0 | 0.00 | 0.56 | 0.00 | 94 | 1015.4 |
| 20260903093830 | 76 | 111 | 0.0 | 0.0 | 0.00 | 0.56 | 0.00 | 94 | 1015.4 |
| 20260903093334 | 76 | 111 | 0.0 | 0.0 | 0.00 | 0.56 | 0.00 | 94 | 1015.5 |
| 20260903092905 | 76 | 111 | 0.0 | 0.0 | 0.00 | 0.56 | 0.00 | 94 | 1015.4 |
| 20260903092349 | 76 | 111 | 0.0 | 0.0 | 0.00 | 0.56 | 0.00 | 94 | 1015.5 |
| 20260903091838 | 76 | 111 | 0.0 | 0.0 | 0.00 | 0.56 | 0.00 | 94 | 1015.3 |
| 20260903091323 | 76 | 111 | 0.0 | 0.0 | 0.00 | 0.56 | 0.00 | 94 | 1015.3 |
| 20260903090910 | 76 | 111 | 0.0 | 0.0 | 0.00 | 0.56 | 0.00 | 94 | 1015.3 |
| 20260903090354 | 76 | 111 | 0.0 | 0.0 | 0.00 | 0.56 | 0.00 | 94 | 1015.2 |
| 20260903085836 | 76 | 111 | 0.0 | 0.0 | 0.00 | 0.56 | 0.00 | 94 | 1015.2 |
| 20260903085340 | 76 | 111 | 0.0 | 0.0 | 0.00 | 0.56 | 0.00 | 94 | 1015.2 |
| 20260903084842 | 76 | 111 | 0.0 | 0.0 | 0.00 | 0.56 | 0.00 | 94 | 1015.2 |
| 20260903084326 | 76 | 111 | 0.0 | 0.0 | 0.00 | 0.56 | 0.00 | 94 | 1015.2 |
| 20260903083837 | 76 | 111 | 0.0 | 0.0 | 0.00 | 0.56 | 0.00 | 94 | 1015.2 |
| 20260903083340 | 76 | 111 | 0.0 | 0.0 | 0.00 | 0.56 | 0.00 | 94 | 1015.1 |
| 20260903082842 | 76 | 111 | 0.0 | 0.0 | 0.00 | 0.56 | 0.00 | 94 | 1015.1 |
| 20260903082346 | 76 | 111 | 0.0 | 0.0 | 0.00 | 0.56 | 0.00 | 94 | 1015.2 |
| 20260903081850 | 76 | 111 | 0.0 | 0.0 | 0.00 | 0.56 | 0.00 | 94 | 1015.3 |
| 20260903081350 | 76 | 111 | 0.0 | 0.0 | 0.00 | 0.56 | 0.00 | 94 | 1015.2 |
| 20260903080846 | 76 | 111 | 0.0 | 0.0 | 0.00 | 0.56 | 0.00 | 94 | 1015.2 |
| 20260903080326 | 76 | 111 | 0.0 | 0.0 | 0.00 | 0.56 | 0.00 | 94 | 1015.2 |
| 20260903075823 | 76 | 111 | 0.0 | 0.0 | 0.00 | 0.56 | 0.00 | 94 | 1015.2 |
| 20260903075323 | 76 | 111 | 0.0 | 0.0 | 0.00 | 0.56 | 0.00 | 94 | 1015.2 |
| 20260903074825 | 76 | 111 | 0.0 | 0.0 | 0.00 | 0.56 | 0.00 | 94 | 1015.2 |
| 20260903074328 | 77 | 111 | 0.0 | 0.0 | 0.00 | 0.56 | 0.00 | 94 | 1015.2 |